When you browse on this site, cookies collect data to enhance your experience and personalize the content and advertising you see.
Visit our Privacy Policy to learn more. By continuing to use the site, you agree to this use of cookies and data.
  • In Hungary
  • List of Countries
  • For 7 days
  • Water Temperature
  • Weather Map
  • News
  • Weather Widgets
  • user-avatar
    Login

    Hourly Weather Sesto San Giovanni

    Today, 17 November, Sunday

    Time Temperature Precipitation Wind Pressure Humidity
    00:00 +9°C° 0.3 mm 1 mps 744 mmHg 80%
    01:00 +8°C° 0 mm 2 mps 743 mmHg 85%
    02:00 +7°C° 1.6 mm 2 mps 742 mmHg 86%
    03:00 +7°C° 1.6 mm 2 mps 742 mmHg 87%
    04:00 +8°C° 1.6 mm 1 mps 741 mmHg 89%
    05:00 +7°C° 1.3 mm 2 mps 740 mmHg 87%
    06:00 +7°C° 1.3 mm 2 mps 739 mmHg 86%
    07:00 +8°C° 0 mm 1 mps 739 mmHg 87%
    08:00 +8°C° 2.1 mm 1 mps 739 mmHg 87%
    09:00 +7°C° 2.1 mm 2 mps 738 mmHg 87%
    10:00 +7°C° 2.1 mm 3 mps 738 mmHg 86%
    11:00 +7°C° 3.4 mm 3 mps 737 mmHg 87%
    12:00 +7°C° 3.4 mm 3 mps 737 mmHg 88%
    13:00 +7°C° 3.4 mm 3 mps 737 mmHg 89%
    14:00 +7°C° 1.2 mm 2 mps 738 mmHg 89%
    15:00 +8°C° 1.2 mm 1 mps 738 mmHg 88%
    16:00 +8°C° 1.2 mm 1 mps 739 mmHg 87%
    17:00 +8°C° 0 mm 1 mps 739 mmHg 87%
    18:00 +8°C° 0 mm 1 mps 740 mmHg 86%
    19:00 +7°C° 0 mm 2 mps 741 mmHg 86%
    20:00 +7°C° 0 mm 2 mps 741 mmHg 85%
    21:00 +6°C° 0 mm 2 mps 742 mmHg 84%
    22:00 +6°C° 0 mm 2 mps 742 mmHg 83%
    23:00 +6°C° 0.5 mm 2 mps 742 mmHg 84%

    Tomorrow, 18 November, Monday

    Time Temperature Precipitation Wind Pressure Humidity
    00:00 +7°C° 0.5 mm 1 mps 743 mmHg 86%
    01:00 +7°C° 0.5 mm 1 mps 743 mmHg 88%
    02:00 +7°C° 0.1 mm 1 mps 743 mmHg 87%
    03:00 +7°C° 0.1 mm 1 mps 743 mmHg 87%
    04:00 +6°C° 0.1 mm 1 mps 743 mmHg 86%
    05:00 +6°C° 0 mm 1 mps 744 mmHg 85%
    06:00 +6°C° 0 mm 1 mps 745 mmHg 85%
    07:00 +6°C° 0 mm 1 mps 746 mmHg 84%
    08:00 +7°C° 0 mm 1 mps 746 mmHg 82%
    09:00 +7°C° 0 mm 0 mps 746 mmHg 79%
    10:00 +7°C° 0 mm 0 mps 746 mmHg 77%
    11:00 +8°C° 0 mm 0 mps 746 mmHg 76%
    12:00 +9°C° 0 mm 1 mps 747 mmHg 74%
    13:00 +10°C° 0 mm 1 mps 747 mmHg 73%
    14:00 +10°C° 0 mm 1 mps 747 mmHg 72%
    15:00 +10°C° 0 mm 1 mps 747 mmHg 72%
    16:00 +9°C° 0 mm 0 mps 747 mmHg 71%
    17:00 +9°C° 0.1 mm 1 mps 747 mmHg 73%
    18:00 +9°C° 0.1 mm 1 mps 748 mmHg 76%
    19:00 +9°C° 0.1 mm 1 mps 748 mmHg 78%
    20:00 +8°C° 0.6 mm 2 mps 748 mmHg 80%
    21:00 +8°C° 0.6 mm 2 mps 748 mmHg 82%
    22:00 +8°C° 0.6 mm 3 mps 749 mmHg 84%
    23:00 +8°C° 0.5 mm 2 mps 749 mmHg 82%

    Day after tomorrow, 19 November, Tuesday

    Time Temperature Precipitation Wind Pressure Humidity
    00:00 +8°C° 0.5 mm 2 mps 749 mmHg 81%
    01:00 +7°C° 0.5 mm 2 mps 748 mmHg 80%
    02:00 +7°C° 0.8 mm 2 mps 748 mmHg 81%
    03:00 +7°C° 0.8 mm 2 mps 748 mmHg 82%
    04:00 +7°C° 0.8 mm 2 mps 748 mmHg 83%
    05:00 +7°C° 0.7 mm 2 mps 748 mmHg 84%
    06:00 +8°C° 0.7 mm 2 mps 748 mmHg 84%
    07:00 +8°C° 0.7 mm 2 mps 748 mmHg 84%
    08:00 +8°C° 0.4 mm 2 mps 748 mmHg 84%
    09:00 +8°C° 0.4 mm 2 mps 749 mmHg 84%
    10:00 +9°C° 0.4 mm 1 mps 749 mmHg 84%
    11:00 +10°C° 0.3 mm 1 mps 749 mmHg 85%
    12:00 +10°C° 0.3 mm 1 mps 748 mmHg 85%
    13:00 +10°C° 0.3 mm 1 mps 748 mmHg 86%
    14:00 +10°C° 0.1 mm 1 mps 748 mmHg 85%
    15:00 +10°C° 0.1 mm 1 mps 748 mmHg 84%
    16:00 +10°C° 0.1 mm 1 mps 749 mmHg 83%
    17:00 +10°C° 0 mm 1 mps 749 mmHg 83%
    18:00 +10°C° 0 mm 1 mps 749 mmHg 82%
    19:00 +10°C° 0 mm 1 mps 749 mmHg 81%
    20:00 +10°C° 0.1 mm 1 mps 750 mmHg 82%
    21:00 +10°C° 0.1 mm 1 mps 750 mmHg 82%
    22:00 +10°C° 0.1 mm 1 mps 751 mmHg 82%
    23:00 +10°C° 0.2 mm 1 mps 751 mmHg 82%

    20 November, Wednesday

    Time Temperature Precipitation Wind Pressure Humidity
    00:00 +10°C° 0.2 mm 1 mps 751 mmHg 82%
    01:00 +10°C° 0.2 mm 1 mps 751 mmHg 82%
    02:00 +10°C° 0.1 mm 1 mps 750 mmHg 83%
    03:00 +10°C° 0.1 mm 1 mps 750 mmHg 83%
    04:00 +10°C° 0.1 mm 1 mps 750 mmHg 84%
    05:00 +10°C° 0 mm 1 mps 750 mmHg 83%
    06:00 +10°C° 0 mm 1 mps 750 mmHg 82%
    07:00 +10°C° 0 mm 1 mps 750 mmHg 81%
    08:00 +10°C° 0 mm 1 mps 750 mmHg 78%
    09:00 +11°C° 0 mm 1 mps 750 mmHg 75%
    10:00 +11°C° 0 mm 1 mps 750 mmHg 72%
    11:00 +12°C° 0 mm 1 mps 750 mmHg 69%
    12:00 +13°C° 0 mm 1 mps 750 mmHg 66%
    13:00 +14°C° 0 mm 1 mps 749 mmHg 62%
    14:00 +14°C° 0 mm 1 mps 749 mmHg 65%
    15:00 +13°C° 0 mm 1 mps 749 mmHg 69%
    16:00 +13°C° 0 mm 1 mps 749 mmHg 72%
    17:00 +12°C° 0 mm 1 mps 749 mmHg 74%
    18:00 +12°C° 0 mm 1 mps 749 mmHg 76%
    19:00 +12°C° 0 mm 1 mps 749 mmHg 79%
    20:00 +12°C° 0 mm 1 mps 749 mmHg 80%
    21:00 +11°C° 0 mm 1 mps 749 mmHg 81%
    22:00 +11°C° 0 mm 1 mps 749 mmHg 82%
    23:00 +11°C° 0.1 mm 1 mps 749 mmHg 82%

    21 November, Thursday

    Time Temperature Precipitation Wind Pressure Humidity
    00:00 +10°C° 0.1 mm 0 mps 749 mmHg 83%
    01:00 +10°C° 0.1 mm 0 mps 749 mmHg 84%
    02:00 +10°C° 0.3 mm 0 mps 748 mmHg 86%
    03:00 +10°C° 0.3 mm 0 mps 748 mmHg 87%
    04:00 +10°C° 0.3 mm 0 mps 748 mmHg 89%
    05:00 +9°C° 0.2 mm 0 mps 748 mmHg 89%
    06:00 +9°C° 0.2 mm 0 mps 748 mmHg 90%
    07:00 +9°C° 0.2 mm 0 mps 748 mmHg 90%
    08:00 +11°C° 0.1 mm 1 mps 748 mmHg 89%
    09:00 +11°C° 0.1 mm 1 mps 748 mmHg 87%
    10:00 +11°C° 0.1 mm 1 mps 748 mmHg 86%
    11:00 +12°C° 0.1 mm 1 mps 748 mmHg 84%
    12:00 +12°C° 0.1 mm 1 mps 747 mmHg 81%
    13:00 +13°C° 0.1 mm 1 mps 747 mmHg 79%
    14:00 +13°C° 0.3 mm 1 mps 747 mmHg 80%
    15:00 +12°C° 0.3 mm 1 mps 747 mmHg 81%
    16:00 +12°C° 0.3 mm 1 mps 747 mmHg 81%
    17:00 +12°C° 0.2 mm 1 mps 747 mmHg 83%
    18:00 +11°C° 0.2 mm 1 mps 748 mmHg 85%
    19:00 +11°C° 0.2 mm 1 mps 748 mmHg 87%
    20:00 +11°C° 0 mm 1 mps 748 mmHg 88%
    21:00 +10°C° 0 mm 1 mps 748 mmHg 88%
    22:00 +9°C° 0 mm 2 mps 749 mmHg 88%
    23:00 +9°C° 0 mm 2 mps 749 mmHg 86%

    22 November, Friday

    Time Temperature Precipitation Wind Pressure Humidity
    00:00 +9°C° 0 mm 2 mps 749 mmHg 85%
    01:00 +9°C° 0 mm 2 mps 748 mmHg 84%
    02:00 +9°C° 0.1 mm 2 mps 748 mmHg 83%
    03:00 +9°C° 0.1 mm 2 mps 748 mmHg 82%
    04:00 +9°C° 0.1 mm 2 mps 748 mmHg 82%
    05:00 +9°C° 0.2 mm 2 mps 748 mmHg 81%
    06:00 +9°C° 0.2 mm 2 mps 748 mmHg 81%
    07:00 +9°C° 0.2 mm 2 mps 748 mmHg 80%
    08:00 +9°C° 0.2 mm 2 mps 748 mmHg 80%
    09:00 +9°C° 0.2 mm 2 mps 749 mmHg 79%
    10:00 +10°C° 0.2 mm 3 mps 749 mmHg 79%
    11:00 +10°C° 0.1 mm 3 mps 748 mmHg 79%
    12:00 +10°C° 0.1 mm 2 mps 748 mmHg 78%
    13:00 +10°C° 0.1 mm 2 mps 748 mmHg 78%
    14:00 +10°C° 0.1 mm 2 mps 748 mmHg 79%
    15:00 +12°C° 0.1 mm 2 mps 748 mmHg 80%
    16:00 +12°C° 0.1 mm 2 mps 748 mmHg 81%
    17:00 +12°C° 0.1 mm 2 mps 748 mmHg 81%
    18:00 +11°C° 0.1 mm 3 mps 748 mmHg 81%
    19:00 +10°C° 0.1 mm 3 mps 748 mmHg 82%
    20:00 +11°C° 0.1 mm 3 mps 748 mmHg 81%
    21:00 +11°C° 0.1 mm 3 mps 748 mmHg 80%
    22:00 +11°C° 0.1 mm 3 mps 748 mmHg 79%
    23:00 +11°C° 0.2 mm 3 mps 748 mmHg 81%
    Show more